CW6265 Weather Reports


time (UTC)temp
C
wind
direction
speed
KPH
gust
KPH
rain 1hr
cm
rain 24hr
cm
rain mn
cm
humidity
%
barometer
mb
20260503193828 11 121 4.8 14.5 0.03 0.03 0.03 76 1009.7
20260503193325 11 336 4.8 12.9 0.03 0.03 0.03 76 1009.8
20260503192841 11 85 4.8 14.5 0.03 0.03 0.03 75 1009.9
20260503192344 12 175 6.4 14.5 0.03 0.03 0.03 73 1010.0
20260503191832 12 173 4.8 11.3 0.00 0.00 0.00 73 1010.2
20260503191337 12 228 4.8 12.9 0.00 0.00 0.00 72 1010.3
20260503190837 13 152 6.4 17.7 0.00 0.00 0.00 70 1010.4
20260503190341 13 184 4.8 19.3 0.00 0.00 0.00 69 1010.6
20260503185836 13 123 3.2 19.3 0.00 0.00 0.00 67 1010.5
20260503185322 14 269 8.0 17.7 0.00 0.00 0.00 67 1010.6
20260503184854 14 208 6.4 17.7 0.00 0.00 0.00 65 1010.6
20260503184326 15 155 8.0 19.3 0.00 0.00 0.00 64 1010.5
20260503183818 15 234 8.0 14.5 0.00 0.00 0.00 64 1010.6
20260503183325 15 217 8.0 17.7 0.00 0.00 0.00 64 1010.5
20260503182831 15 143 6.4 17.7 0.00 0.00 0.00 65 1010.6
20260503182323 15 334 4.8 17.7 0.00 0.00 0.00 64 1010.6
20260503181832 15 210 4.8 14.5 0.00 0.00 0.00 63 1010.5
20260503181334 15 161 8.0 14.5 0.00 0.00 0.00 64 1010.5
20260503180839 15 295 6.4 17.7 0.00 0.00 0.00 66 1010.6
20260503180341 15 150 3.2 17.7 0.00 0.00 0.00 64 1010.6
20260503175854 15 98 8.0 17.7 0.00 0.00 0.00 64 1010.5
20260503175337 15 97 6.4 19.3 0.00 0.00 0.00 64 1010.4
20260503174827 15 183 4.8 19.3 0.00 0.00 0.00 65 1010.6
20260503174337 15 213 8.0 17.7 0.00 0.00 0.00 67 1010.6
20260503173821 15 195 8.0 17.7 0.00 0.00 0.00 64 1010.7
20260503173352 15 153 8.0 22.5 0.00 0.00 0.00 65 1010.7
20260503172818 15 233 4.8 22.5 0.00 0.00 0.00 66 1010.8
20260503172325 15 307 8.0 16.1 0.00 0.00 0.00 63 1010.9
20260503171831 14 153 6.4 16.1 0.00 0.00 0.00 62 1010.9
20260503171321 14 9 8.0 17.7 0.00 0.00 0.00 64 1011.1
20260503170818 14 130 8.0 27.4 0.00 0.00 0.00 64 1011.1
20260503170330 14 261 9.7 27.4 0.00 0.00 0.00 65 1011.3
20260503150820 11 190 6.4 17.7 0.00 0.00 0.00 71 1011.8
20260503150324 11 175 3.2 19.3 0.00 0.00 0.00 71 1011.8
20260503131324 8 152 6.4 16.1 0.00 0.00 0.00 77 1012.5
20260503130827 8 221 3.2 11.3 0.00 0.00 0.00 76 1012.5
20260503130332 8 126 4.8 11.3 0.00 0.00 0.00 76 1012.5
20260503110343 7 223 1.6 11.3 0.00 0.00 0.00 77 1012.1
20260503090321 7 162 3.2 11.3 0.00 0.00 0.00 78 1012.5
20260503081341 7 211 3.2 12.9 0.00 0.00 0.00 82 1012.7
20260503080826 7 223 3.2 12.9 0.00 0.00 0.00 81 1012.7
20260503080332 7 129 4.8 11.3 0.00 0.00 0.00 82 1012.6
20260503072835 5 185 4.8 9.7 0.00 0.00 0.00 84 1012.8
20260503072342 5 151 3.2 8.0 0.00 0.00 0.00 84 1012.8
20260503071849 5 108 3.2 8.0 0.00 0.00 0.00 84 1012.7
20260503071337 5 142 1.6 6.4 0.00 0.00 0.00 84 1012.9
20260503070822 4 155 3.2 8.0 0.00 0.00 0.00 83 1013.0
20260503070329 4 201 3.2 8.0 0.00 0.00 0.00 83 1013.0
20260503060327 3 139 0.0 1.6 0.00 0.00 0.00 77 1013.6
20260503054829 3 139 0.0 1.6 0.00 0.00 0.00 76 1013.9
20260503054331 3 139 0.0 1.6 0.00 0.00 0.00 76 1013.9
20260503053831 3 139 0.0 1.6 0.00 0.00 0.00 77 1014.0
20260503053340 3 139 0.0 1.6 0.00 0.00 0.00 76 1014.0
20260503052832 3 139 0.0 1.6 0.00 0.00 0.00 76 1014.0
20260503052340 3 139 0.0 0.0 0.00 0.00 0.00 76 1014.1
20260503051819 3 139 0.0 1.6 0.00 0.00 0.00 75 1014.2
20260503051352 3 139 0.0 1.6 0.00 0.00 0.00 75 1014.2
20260503050831 3 139 0.0 1.6 0.00 0.00 0.00 75 1014.2
20260503050326 3 139 0.0 1.6 0.00 0.00 0.00 75 1014.3
20260503045835 4 139 0.0 1.6 0.00 0.00 0.00 75 1014.4
20260503045322 4 139 0.0 1.6 0.00 0.00 0.00 75 1014.4
20260503044829 4 139 0.0 1.6 0.00 0.00 0.00 75 1014.4
20260503044339 4 139 0.0 1.6 0.00 0.00 0.00 74 1014.4
20260503043845 4 139 0.0 1.6 0.00 0.00 0.00 74 1014.5
20260503043332 4 139 0.0 0.0 0.00 0.00 0.00 74 1014.5
20260503042834 4 139 0.0 0.0 0.00 0.00 0.00 73 1014.5
20260503042327 4 139 0.0 0.0 0.00 0.00 0.00 73 1014.6
20260503041834 4 139 0.0 0.0 0.00 0.00 0.00 73 1014.6
20260503041325 5 139 0.0 1.6 0.00 0.00 0.00 73 1014.7
20260503040828 5 139 0.0 1.6 0.00 0.00 0.00 72 1014.7
20260503040315 5 139 0.0 0.0 0.00 0.00 0.00 72 1014.8
20260503035822 5 139 0.0 0.0 0.00 0.00 0.00 72 1014.8
20260503035328 5 139 0.0 0.0 0.00 0.00 0.00 73 1014.9
20260503034824 5 139 0.0 0.0 0.00 0.00 0.00 72 1014.9
20260503034330 5 139 0.0 0.0 0.00 0.00 0.00 72 1015.0
20260503033817 5 139 0.0 0.0 0.00 0.00 0.00 72 1015.0
20260503033356 5 139 0.0 0.0 0.00 0.00 0.00 72 1015.1
20260503032821 5 139 0.0 0.0 0.00 0.00 0.00 72 1015.1
20260503032335 5 139 0.0 0.0 0.00 0.00 0.00 72 1015.2
20260503031823 5 139 0.0 0.0 0.00 0.00 0.00 72 1015.2
20260503031326 5 139 0.0 0.0 0.00 0.00 0.00 72 1015.2
20260503030834 5 139 0.0 0.0 0.00 0.00 0.00 73 1015.3
20260503030340 5 139 0.0 0.0 0.00 0.00 0.00 73 1015.4
20260503025841 5 139 0.0 0.0 0.00 0.00 0.00 74 1015.4
20260503025327 5 139 0.0 0.0 0.00 0.00 0.00 73 1015.4
20260503024857 5 139 0.0 0.0 0.00 0.00 0.00 73 1015.5
20260503024321 5 139 0.0 0.0 0.00 0.00 0.00 72 1015.5
20260503023829 6 139 0.0 0.0 0.00 0.00 0.00 71 1015.5
20260503023319 6 139 0.0 0.0 0.00 0.00 0.00 71 1015.5
20260503022818 6 139 0.0 0.0 0.00 0.00 0.00 70 1015.6
20260503022357 6 139 0.0 0.0 0.00 0.00 0.00 71 1015.5
20260503021819 6 139 0.0 0.0 0.00 0.00 0.00 71 1015.6
20260503021332 6 139 0.0 0.0 0.00 0.00 0.00 71 1015.6
20260503020839 6 139 0.0 0.0 0.00 0.00 0.00 71 1015.7
20260503020354 6 139 0.0 0.0 0.00 0.00 0.00 70 1015.7
20260503015842 6 139 0.0 0.0 0.00 0.00 0.00 69 1015.7
20260503015324 6 139 0.0 0.0 0.00 0.00 0.00 69 1015.6
20260503014830 6 139 0.0 0.0 0.00 0.00 0.00 69 1015.6
20260503014335 7 139 0.0 0.0 0.00 0.00 0.00 69 1015.6
20260503013846 7 139 0.0 0.0 0.00 0.00 0.00 70 1015.6
20260503013328 7 139 0.0 0.0 0.00 0.00 0.00 69 1015.6
20260503012835 7 139 0.0 0.0 0.00 0.00 0.00 68 1015.6
20260503012320 7 139 0.0 0.0 0.00 0.00 0.00 68 1015.6
20260503011828 7 139 0.0 0.0 0.00 0.00 0.00 68 1015.7
20260503011337 7 139 0.0 0.0 0.00 0.00 0.00 67 1015.7
20260503010823 7 139 0.0 0.0 0.00 0.00 0.00 67 1015.8
20260503010324 7 139 0.0 0.0 0.00 0.00 0.00 66 1015.8
20260503005835 7 139 0.0 0.0 0.00 0.00 0.00 67 1015.7
20260503005317 8 139 0.0 0.0 0.00 0.00 0.00 67 1015.7
20260503004819 8 139 0.0 0.0 0.00 0.00 0.00 66 1015.7
20260503004322 8 139 0.0 0.0 0.00 0.00 0.00 66 1015.8
20260503003817 8 139 0.0 1.6 0.00 0.00 0.00 66 1015.8
20260503003322 8 139 0.0 3.2 0.00 0.00 0.00 67 1015.8
20260503002831 8 139 1.6 3.2 0.00 0.00 0.00 68 1015.8
20260503002343 8 130 1.6 4.8 0.00 0.00 0.00 66 1015.8
20260503001840 8 185 1.6 4.8 0.00 0.00 0.00 66 1015.8
20260503001327 8 134 1.6 4.8 0.00 0.00 0.00 65 1015.9
20260503000855 8 128 3.2 4.8 0.00 0.00 0.00 67 1015.9
20260503000322 8 180 1.6 4.8 0.00 0.00 0.00 69 1016.0
20260502235829 8 187 1.6 8.0 0.00 0.00 0.00 68 1015.9
20260502235329 9 173 1.6 6.4 0.00 0.00 0.00 68 1015.9
20260502234827 9 182 1.6 4.8 0.00 0.00 0.00 67 1016.0
20260502234335 9 211 1.6 8.0 0.00 0.00 0.00 65 1016.0
20260502233817 9 196 1.6 6.4 0.00 0.00 0.00 66 1016.1
20260502233322 9 176 1.6 4.8 0.00 0.00 0.00 64 1016.0
20260502232821 10 173 1.6 4.8 0.00 0.00 0.00 60 1016.1
20260502232323 10 200 3.2 4.8 0.00 0.00 0.00 63 1016.1
20260502231843 10 150 3.2 4.8 0.00 0.00 0.00 60 1016.0
20260502231349 10 204 3.2 4.8 0.00 0.00 0.00 62 1016.1
20260502230834 10 177 1.6 9.7 0.00 0.00 0.00 62 1016.2
20260502230325 10 180 4.8 9.7 0.00 0.00 0.00 61 1016.2
20260502225901 10 155 1.6 6.4 0.00 0.00 0.00 61 1016.3
20260502225346 11 178 3.2 8.0 0.00 0.00 0.00 61 1016.3
20260502224827 11 173 1.6 6.4 0.00 0.00 0.00 58 1016.3
20260502224329 11 174 3.2 9.7 0.00 0.00 0.00 53 1016.3
20260502223832 11 186 3.2 9.7 0.00 0.00 0.00 56 1016.3
20260502223339 11 161 1.6 9.7 0.00 0.00 0.00 53 1016.4
20260502222848 11 135 3.2 9.7 0.00 0.00 0.00 52 1016.5
20260502222335 12 148 1.6 8.0 0.00 0.00 0.00 52 1016.5
20260502221834 12 147 4.8 8.0 0.00 0.00 0.00 56 1016.5
20260502221344 12 160 3.2 6.4 0.00 0.00 0.00 53 1016.5
20260502220825 12 194 1.6 6.4 0.00 0.00 0.00 52 1016.5
20260502220358 12 195 4.8 8.0 0.00 0.00 0.00 54 1016.6
20260502215823 12 179 1.6 8.0 0.00 0.00 0.00 54 1016.5
20260502215333 12 175 4.8 8.0 0.00 0.00 0.00 53 1016.6
20260502214818 12 159 3.2 6.4 0.00 0.00 0.00 54 1016.6
20260502214324 12 246 1.6 4.8 0.00 0.00 0.00 54 1016.7
20260502213832 12 183 3.2 8.0 0.00 0.00 0.00 60 1016.6
20260502213322 12 163 3.2 9.7 0.00 0.00 0.00 58 1016.6
20260502212822 12 195 1.6 8.0 0.00 0.00 0.00 57 1016.6
20260502212328 12 201 3.2 6.4 0.00 0.00 0.00 56 1016.7
20260502211834 12 150 3.2 9.7 0.00 0.00 0.00 56 1016.7
20260502211322 12 178 3.2 14.5 0.00 0.00 0.00 55 1016.7
20260502210824 12 193 1.6 14.5 0.00 0.00 0.00 55 1016.8
20260502210336 12 248 1.6 6.4 0.00 0.00 0.00 56 1016.8
20260502205840 12 151 3.2 9.7 0.00 0.00 0.00 55 1016.8
20260502205343 12 171 4.8 9.7 0.00 0.00 0.00 54 1016.9
20260502204850 12 143 4.8 9.7 0.00 0.00 0.00 51 1016.9
20260502204335 12 157 3.2 6.4 0.00 0.00 0.00 51 1017.0
20260502203824 12 233 1.6 4.8 0.00 0.00 0.00 52 1017.1
20260502203332 12 261 3.2 9.7 0.00 0.00 0.00 53 1017.1
20260502202827 12 204 3.2 9.7 0.00 0.00 0.00 53 1017.2
20260502202327 12 278 3.2 11.3 0.00 0.00 0.00 55 1017.3
20260502201830 12 334 4.8 11.3 0.00 0.00 0.00 56 1017.3
20260502201334 12 143 4.8 9.7 0.00 0.00 0.00 58 1017.4
20260502200848 12 201 3.2 9.7 0.00 0.00 0.00 57 1017.4
20260502200359 12 258 1.6 6.4 0.00 0.00 0.00 58 1017.5
20260502195821 12 201 3.2 6.4 0.00 0.00 0.00 60 1017.6
20260502195400 12 181 3.2 9.7 0.00 0.00 0.00 56 1017.7
20260502194850 12 171 6.4 9.7 0.00 0.00 0.00 57 1017.7
20260502194336 12 113 3.2 11.3 0.00 0.00 0.00 58 1017.9